Showing default

LEGION 5, 62900

Orbit data source: Space-Track

LEGION 5, 62900 is a payload satellite owned by Maxar Intel (US) in LEO that was launched on Tue, 04 Feb 2025 UTC via an FALCON 9 launch vehicle from the Air Force Eastern Test Range (AFETR). Payload-class satellites include a variety of spacecraft equipped with specific instruments for various scientific and technological missions. These include communications satellites like Starlink; space stations such as the ISS; scientific satellites like the Hubble; Earth observation satellites from companies like Planet Labs, Umbra, and HawkEye 360; GPS; miniature CubeSats for education and research; and military/defense satellites.

Loading next visibility...
Identifier
62900, 2025-025A
Orbit
LEO
Country
Flag of USUS
Related business
Manufacturer
Maxar Space Inf
Mission
Operational Commercial Imaging
Bus & Motor
LEGION, Unknown motor
Mass
~700 kg wet, 630 kg dry
Launch date (UTC)
2025-02-04 (9 months ago)
Launch vehicle
FALCON 9
Launch site
Air Force Eastern Test Range (AFETR)
Object type
Payload
Rocket body
Debris
Shape & HBR
Box + 1 Pan, 2.3 m
Radar Cross Section
9.079 m², Large (>1 m²)

Expand to show TLE details & history
Last TLE update: 15 hours ago

TLE from 15 hours ago
0 LEGION 5
1 62900U 25025A   25312.67292377  .00007905  00000-0  42947-3 0  9997
2 62900  45.0476  43.1313 0008178 294.8119  65.1909 15.14994193 41032
Epoch: 2025-11-08T16:09Z
TLE epoch observation values (Epoch: 2025-11-08T16:09:00.613Z)
Latitude
-0.00003°
Longitude
112.77955°
Altitude
518.637 km
Speed
7.607 km/s
True Right ascension
02h 52m 31s
True Declination
0° 00' 00"
Sunlit
Object was in full shadow at epoch
Visualization orbit readout
Latitude
Unknown
Longitude
Unknown
Altitude
Unknown
Speed
Unknown
Apparent Right ascension
Unknown
Apparent Declination
Unknown
Sunlit
N/A
Visualization observer readout
Local Sidereal Time
03:25:06
Azimuth
Unknown
Elevation
Unknown
Doppler factor
Unknown
Orbital elements
Apogee altitude
528.232 km
Perigee altitude
516.945 km
Semi-major axis
6,900.726 km
Eccentricity
0.00082
Inclination
45.0476°
RAAN
43.1313°
Arg. of periapsis
294.8119°
True anomaly
65.276°
Mean anomaly
65.1909°
Eccentric anomaly
65.23345°
Mean motion
3.78618 °/min
Orbital period
95.08 mins
BSTAR
0.00042947
Loading maneuver chart data...
Computing Atmospheric mass density...
Loading historical data...
Loading historical data...
Loading historical data...
Loading historical data...
Loading historical data...
Loading historical data...
Loading historical data...
Other satellites on launch #25 in the year 2025 (2025-02-04 UTC)

Documentation

Showing up to 5 results
|